Погода в Тверском

Россия / Краснодарский край     46°24′44″N   40°15′36″E
темп.,
°C
ветер,
м/с
пор.,
м/с
влажн.,
%
обл.,
%
осадки,
мм/ч
давл.,
гПа
погр.,
м
19 апреля, пн
пн1900:00+9в1298100 0.5 101644
03:00+9ссв1198100 1.5 101526
06:00+9ссв2298100 1.1 101555
09:00+10св1198100 2.4 101550
12:00+11в1296100 0.4 1014149
15:00+11зюз0196100 0.9 101490
18:00+11юз249598 0.0 1014254
21:00+9ю1197100 0.0 101410
20 апреля, вт
вт2000:00+9вюв339978 0.0 101245
03:00+10юв2299100 1.5 101167
06:00+11в51099100 2.8 1007275
09:00+15вюв9158777 2.8 1004683
12:00+19ююв6107166 0.3 1003944
15:00+19юз814645 1.3 10041713
18:00+15юз1015710 0.0 10061122
21:00+11юз11178187 0.0 10091283
21 апреля, ср
ср2100:00+10зюз9158436 0.0 1012730
03:00+8зюз714895 0.0 1014463
06:00+7ююз389480 0.0 1016297
09:00+12юз568097 0.0 1017772
12:00+12юз557598 0.2 1018966
15:00+13юз567387 0.4 1018677
18:00+13зюз46775 0.9 1018553
21:00+10юз228655 1.0 102014
22 апреля, чт
чт2200:00+10зюз118799 0.0 102010
03:00+10зсз2287100 0.0 102119
06:00+9сз2289100 0.0 102130
09:00+12зсз1169100 0.0 1022473
12:00+15зюз2259100 0.0 10221350
15:00+16зюз335992 0.1 10221169
18:00+15юз236581 0.2 1022148
21:00+13зсз347590 0.6 102375
23 апреля, пт
пт2300:00+10зсз22871 0.0 102323
03:00+9зсз22900 0.0 102320
06:00+8зсз11890 0.0 102311
09:00+13зюз22660 0.0 1023471
12:00+16зюз33540 0.0 10221474
15:00+18зюз444739 0.0 10212101
18:00+16з235988 0.0 102164
21:00+12с11730 0.0 102110